Regional Weather Roundup
Issued by NWS Wilmington, NC

Home | Current Version | Previous Version | Text Only | Print | Product List | Glossary On
Versions: 1 2 3 4 5 6 7 8 9 10 11 12 13 14 15 16 17 18 19 20 21 22 23 24 25 26 27 28 29 30 31 32 33 34 35 36 37 38 39 40 41 42 43 44 45 46 47 48 49 50
000
ASUS42 KILM 221010
RWRILM
RWRILM
REGIONAL HOURLY WEATHER ROUNDUP
NATIONAL WEATHER SERVICE WILMINGTON NC
600 AM EDT MON SEP 22 2014

NOTE: "FAIR" INDICATES FEW OR NO CLOUDS BELOW 12,000 FEET WITH NO
SIGNIFICANT WEATHER AND/OR OBSTRUCTIONS TO VISIBILITY.

...............WFO WILMINGTON COUNTY WARNING AREA...............

......COASTAL NC AND SC COUNTIES......

CITY           SKY/WX    TMP DP  RH WIND       PRES   REMARKS
WILMINGTON     MOCLDY    73  64  73 W10       29.93R
SOUTHPORT      PTCLDY    74  66  75 W9        29.93R
N MYRTLE BEACH PTCLDY    73  63  70 W7        29.93R
MYRTLE BEACH   CLOUDY    73  63  68 SW9       29.94R

......INLAND NC AND SC COUNTIES.......

CITY           SKY/WX    TMP DP  RH WIND       PRES   REMARKS
LUMBERTON      CLOUDY    71  67  87 W5        29.93R
ELIZABETHTOWN  MOCLDY    71  65  80 CALM      29.93R
WHITEVILLE     CLEAR     72  65  79 CALM      29.93R
FLORENCE       CLOUDY    73  64  73 N7        29.95R
DARLINGTON     MOCLDY    72  64  78 CALM      29.96R

....................REST OF NORTH CAROLINA......................

.........EASTERN NC.........

CITY           SKY/WX    TMP DP  RH WIND       PRES   REMARKS
CAPE HATTERAS  MOCLDY    74  71  91 W9        29.90R
JACKSONVILLE   MOCLDY    70  63  78 SW3       29.92R
MOREHEAD CITY  PTCLDY    77  67  71 W12       29.91R
KENANSVILLE    PTCLDY    72  64  77 W5        29.93R
NEW BERN       CLOUDY    73  65  75 W6        29.92R
ELIZABETH CITY PTCLDY    70  66  87 W7        29.88R

.........CENTRAL NC.........

CITY           SKY/WX    TMP DP  RH WIND       PRES   REMARKS
RALEIGH DURHAM MOCLDY    67  57  70 CALM      29.95R
ROCKY MOUNT    CLOUDY    70  61  73 NW6       29.92R
ROANOKE RAPIDS NOT AVBL
FAYETTEVILLE   MOCLDY    74  65  73 NW5       29.93R
HOFFMAN        NOT AVBL

.........WESTERN NC.........

CITY           SKY/WX    TMP DP  RH WIND       PRES   REMARKS
CHARLOTTE      PTCLDY    66  53  63 N7        29.99R
GREENSBORO     PTCLDY    62  51  67 NW6       29.98R
HICKORY        NOT AVBL
BOONE          NOT AVBL
ASHEVILLE      NOT AVBL

.....................REST OF SOUTH CAROLINA.....................

.........EASTERN SC.........

CITY           SKY/WX    TMP DP  RH WIND       PRES   REMARKS
CHARLESTON     CLEAR     71  63  75 W5        29.96R
BEAUFORT MCAS  CLEAR     69  62  78 E5        29.97R
HILTON HEAD    NOT AVBL

.........CENTRAL SC.........

CITY           SKY/WX    TMP DP  RH WIND       PRES   REMARKS
COLUMBIA       CLOUDY    71  66  84 SW3       29.95R
ORANGEBURG     MOCLDY    71  62  73 SW6       29.96R
SUMTER SHAW    MOCLDY    73  64  75 SW8       29.93R

.........WESTERN SC.........

CITY           SKY/WX    TMP DP  RH WIND       PRES   REMARKS
GREENVILLE     NOT AVBL
ROCK HILL      PTCLDY    67  54  63 N7        29.99R
ANDERSON       PTCLDY    68  66  93 NE3       29.97R
CLEMSON        NOT AVBL
GREENWOOD      PTCLDY    70  65  84 CALM      29.99R


...................COASTAL AND OFFSHORE REPORTS..................

................LOCAL PIERS AND NC RESERVE................


STATION/POSITION TIME  SKY/WX   TEMP    WIND        PRES    VSBY
                                AIR SEA DIR/SP/G
                 (UTC)          (F)     (DEG/KT/KT) (MB)    (MI)
JOHNY MRCER PIER 1000            76 80  250/  9/ 11 1012.4R
NC RESRV MASNBRO 0900            76     240/  4     1012.0S
OCEAN CREST PIER 1000            78 78  220/ 16/ 18 1012.2R
SPRINGMAID  PIER 1000            74 78  240/ 10/ 11 1013.4R


................COASTAL AND OFFSHORE BUOYS................


STATION/POSITION TIME  SKY/WX   TEMP    WIND        PRES    VSBY
                                AIR SEA DIR/SP/G
                 (UTC)          (F)     (DEG/KT/KT) (MB)    (MI)
DIMNDSHOAL 41025 1000            81     240/ 19/ 23 1011.7R
WVE H/P(F/S)=  7/ 6 WND WVE H/P(F/S)=  7/ 6 SWL H/P/D(F/S/D)=  2/110/10

CAPE LOOKOUT     0900            78     240/ 11/ 14 1012.0R
ONSLOW BAY 41036 1000            81 82  250/ 21/ 23 1011.9R
WVE H/P(F/S)=  6/ 6 WND WVE H/P(F/S)=  5/ 6 SWL H/P/D(F/S/D)=  2/120/ 8

5 WRITEBCH 41038 0900            75 79  250/ 14/ 16   N/A
MASONBORO  41110 1000               79                N/A
WVE H/P(F/S)=  3/ 8 WND WVE H/P(F/S)=  3/ 8

WILM HARBR 41108 1000               79                N/A
WVE H/P(F/S)=  5/ 6 WND WVE H/P(F/S)=  5/ 6

27WRITEBCH 41037 0900            77 80  260/ 17/ 21 1012.5R
FRYING PAN 41013 NOT AVBL
SUNST NRSH 41024 0900            78     260/ 16/ 17 1012.6R
CAPRS NRSH 41029 0900            78     260/ 16/ 17   N/A
EDISTO     41004 1000            81 81  260/ 16/ 19 1013.7R
WVE H/P(F/S)=  5/ 6 WND WVE H/P(F/S)=  5/ 6 SWL H/P/D(F/S/D)=  2/ 8



..........OFFSHORE BUOYS BEYOND 100 NM OFFSHORE...........
.....IN A TRIANGLE---HAT TO BERMUDA TO BAHAMAS TO HAT.....


STATION/POSITION TIME  SKY/WX   TEMP    WIND        PRES    VSBY
                                AIR SEA DIR/SP/G
                 (UTC)          (F)     (DEG/KT/KT) (MB)    (MI)
150E HAT   41001 NOT AVBL
W BERMUDA  41048 0935            77 81  200/ 17/ 21 1016.1R
WVE H/P(F/S)=  8/ 9 WND WVE H/P(F/S)=  7/ 7 SWL H/P/D(F/S/D)=  5/250/ 9

ATLANTIC S 41049 0950            83 85  120/ 14/ 16 1019.0R
WVE H/P(F/S)=  6/ 8 WND WVE H/P(F/S)=  3/ 6 SWL H/P/D(F/S/D)=  5/100/ 8

E BAHAMAS  41046 0921            83 84  100/ 10/ 12 1016.7R
WVE H/P(F/S)=  4/ 7 WND WVE H/P(F/S)=  2/ 4 SWL H/P/D(F/S/D)=  3/ 90/ 7

NE BAHAMAS 41047 0852            82 83  200/  6/  8 1017.7R
WVE H/P(F/S)=  4/ 8 WND WVE H/P(F/S)=  2/ 4 SWL H/P/D(F/S/D)=  3/290/ 8

120E CANVRL41010 1000            81 84  290/  6/  8 1015.8R
WVE H/P(F/S)=  5/10 WND WVE H/P(F/S)=  2/ 4 SWL H/P/D(F/S/D)=  5/ 30/10


END


USA.gov is the U.S. government's official web portal to all federal, state and local government web resources and services.